Weather History for KSNC - January, 2014

Change the Weather History Date:

Tuesday, January 21, 2014

  Actual Average (KHVN) Record (KHVN)
Temperature  
Mean Temperature 20 °F -  
Max Temperature 28 °F 32 °F 60 °F (1986)
Min Temperature 12 °F 20 °F 3 °F (1985)
Degree Days  
Heating Degree Days 45    
Moisture  
Dew Point -    
Average Humidity    
Maximum Humidity    
Minimum Humidity    
Precipitation  
Precipitation 26.48 in - - ()
Sea Level Pressure  
Sea Level Pressure 29.92 in    
Wind  
Wind Speed 10 mph (North)    
Max Wind Speed 16 mph    
Max Gust Speed 23 mph    
Visibility 5 miles    
Events Snow    
Averages and records for this station are not official NWS values.
T = Trace of Precipitation, MM = Missing Value Source: NWS Daily Summary

Daily Weather History Graph

Daily Weather History Graph

Search for Another Location

Airport or City:

Trip Planner

Search our weather history database for the weather conditions in past years. The results will help you decide how hot, cold, wet, or windy it might be!

Date:

Astronomy

Jan. 21, 2014 Rise Set
Actual Time 7:10 AM EST 4:52 PM EST
Civil Twilight 6:40 AM EST 5:22 PM EST
Nautical Twilight 6:06 AM EST 5:56 PM EST
Astronomical Twilight 5:33 AM EST 6:29 PM EST
Moon 10:27 PM EST (1/21) 9:34 AM EST (1/21)
Length of Visible Light 10h 42m
Length of Day
9h 42m
Waning Gibbous, 75% of the Moon is Illuminated
Jan 21
Waning Gibbous
Jan 24
Last Quarter
Jan 30
New
Feb 6
First Quarter
Feb 14
Full

Hourly Weather History & Observations

Time (EST) Temp. Windchill Dew Point Humidity Pressure Visibility Wind Dir Wind Speed Gust Speed Precip Events Conditions
12:15 AM 28.4 °F 18.0 °F - N/A% 29.87 in 10.0 mi North 12.7 mph 21.9 mph N/A   Clear
12:35 AM 28.4 °F 17.5 °F - N/A% 29.88 in 10.0 mi NNW 13.8 mph 17.3 mph N/A   Clear
12:55 AM 28.4 °F 19.7 °F - N/A% 29.89 in 10.0 mi NNW 9.2 mph 17.3 mph N/A   Clear
1:15 AM 26.6 °F 17.5 °F - N/A% 29.90 in 10.0 mi North 9.2 mph - N/A   Clear
1:35 AM 26.6 °F 18.2 °F - N/A% 29.91 in 10.0 mi North 8.1 mph - N/A   Clear
1:55 AM 26.6 °F 20.0 °F - N/A% 29.92 in 10.0 mi NNE 5.8 mph - N/A   Clear
2:15 AM 24.8 °F 15.3 °F - N/A% 29.93 in 10.0 mi North 9.2 mph - N/A   Clear
2:35 AM 24.8 °F 14.0 °F - N/A% 29.93 in 10.0 mi North 11.5 mph - N/A   Clear
2:55 AM 24.8 °F 15.3 °F - N/A% 29.93 in 10.0 mi NNW 9.2 mph - N/A   Clear
3:15 AM 23.0 °F 11.1 °F - N/A% 29.93 in 10.0 mi NNW 12.7 mph 17.3 mph N/A   Clear
3:35 AM 23.0 °F 13.1 °F - N/A% 29.94 in 10.0 mi North 9.2 mph - N/A   Clear
3:55 AM 23.0 °F 13.9 °F - N/A% 29.94 in 10.0 mi North 8.1 mph - N/A   Clear
4:15 AM 23.0 °F 13.9 °F - N/A% 29.95 in 10.0 mi NNW 8.1 mph - N/A   Clear
4:35 AM 23.0 °F 12.4 °F - N/A% 29.95 in 10.0 mi NNW 10.4 mph 16.1 mph N/A   Clear
4:55 AM 21.2 °F 10.1 °F - N/A% 29.95 in 10.0 mi North 10.4 mph - N/A   Clear
5:15 AM 21.2 °F 10.1 °F - N/A% 29.96 in 10.0 mi NNW 10.4 mph - N/A   Clear
5:35 AM 21.2 °F 11.7 °F - N/A% 29.97 in 10.0 mi NNE 8.1 mph - N/A   Clear
5:55 AM 21.2 °F 11.7 °F - N/A% 29.97 in 10.0 mi North 8.1 mph - N/A   Clear
6:15 AM 21.2 °F 10.1 °F - N/A% 29.97 in 10.0 mi North 10.4 mph - N/A   Clear
6:35 AM 21.2 °F 10.9 °F - N/A% 29.98 in 10.0 mi North 9.2 mph - N/A   Clear
6:55 AM 21.2 °F 10.9 °F - N/A% 29.98 in 10.0 mi NNE 9.2 mph - N/A   Clear
7:15 AM 19.4 °F 8.6 °F - N/A% 29.98 in 10.0 mi North 9.2 mph - N/A   Mostly Cloudy
7:35 AM 21.2 °F 12.6 °F - N/A% 29.99 in 10.0 mi NNE 6.9 mph - N/A   Overcast
7:55 AM 21.2 °F 10.9 °F - N/A% 29.98 in 10.0 mi NNE 9.2 mph - N/A   Scattered Clouds
8:15 AM 19.4 °F 8.6 °F - N/A% 29.98 in 10.0 mi NNE 9.2 mph 16.1 mph N/A   Clear
8:35 AM 19.4 °F 7.2 °F - N/A% 29.98 in 10.0 mi NNE 11.5 mph - N/A   Clear
8:55 AM 19.4 °F 6.0 °F - N/A% 29.97 in 10.0 mi NNE 13.8 mph 17.3 mph N/A   Clear
9:15 AM 19.4 °F 9.5 °F - N/A% 29.98 in 10.0 mi North 8.1 mph - N/A   Clear
9:35 AM 21.2 °F 10.9 °F - N/A% 29.99 in 10.0 mi NNE 9.2 mph - N/A   Partly Cloudy
9:55 AM 21.2 °F 12.6 °F - N/A% 30.00 in 10.0 mi NE 6.9 mph - N/A   Partly Cloudy
10:15 AM 21.2 °F 13.6 °F - N/A% 30.01 in 10.0 mi NE 5.8 mph - N/A   Scattered Clouds
10:35 AM 21.2 °F 12.6 °F - N/A% 30.01 in 10.0 mi NNE 6.9 mph - N/A Snow Light Snow
10:55 AM 21.2 °F 13.6 °F - N/A% 30.00 in 8.0 mi North 5.8 mph - N/A Snow Light Snow
11:15 AM 21.2 °F 12.6 °F - N/A% 30.00 in 6.0 mi North 6.9 mph - N/A Snow Light Snow
11:35 AM 19.4 °F 10.4 °F - N/A% 29.98 in 5.0 mi North 6.9 mph - N/A Snow Light Snow
11:55 AM 19.4 °F 10.4 °F - N/A% 29.98 in 2.0 mi North 6.9 mph - 0.02 in Snow Light Snow
12:15 PM 19.4 °F 9.5 °F - N/A% 29.98 in 1.2 mi NNE 8.1 mph - 0.05 in Snow Light Snow
12:35 PM 19.4 °F 9.5 °F - N/A% 29.97 in 0.8 mi North 8.1 mph - 0.21 in Snow Light Snow
12:55 PM 17.6 °F 5.0 °F - N/A% 29.95 in 1.0 mi NNE 11.5 mph - 0.37 in Snow Light Snow
1:15 PM 17.6 °F 5.7 °F - N/A% 29.93 in 1.2 mi NNE 10.4 mph - 0.04 in Snow Light Snow
1:35 PM 17.6 °F 6.4 °F - N/A% 29.91 in 1.0 mi NNE 9.2 mph - 0.13 in Snow Light Snow
1:55 PM 17.6 °F 5.0 °F - N/A% 29.89 in 1.5 mi NNE 11.5 mph - 0.18 in Snow Light Snow
2:15 PM 17.6 °F 4.3 °F - N/A% 29.88 in 0.8 mi NNE 12.7 mph - 0.13 in Snow Light Snow
2:35 PM 17.6 °F 3.7 °F - N/A% 29.87 in 0.5 mi North 13.8 mph 19.6 mph 0.53 in Snow Snow
2:55 PM 17.6 °F 6.4 °F - N/A% 29.88 in 0.5 mi NNE 9.2 mph - 1.35 in Snow Snow
3:15 PM 17.6 °F 7.3 °F - N/A% 29.86 in 1.0 mi NNE 8.1 mph - 0.21 in Snow Snow
3:35 PM 17.6 °F 6.4 °F - N/A% 29.87 in 0.2 mi NNE 9.2 mph - 1.07 in Snow Heavy Snow
3:55 PM 17.6 °F 6.4 °F - N/A% 29.87 in 0.5 mi NNE 9.2 mph 16.1 mph 1.86 in Snow Light Snow
4:15 PM 17.6 °F 5.7 °F - N/A% 29.88 in 0.5 mi North 10.4 mph 17.3 mph 0.46 in Snow Snow
4:35 PM 17.6 °F 4.3 °F - N/A% 29.87 in 0.2 mi NNE 12.7 mph 18.4 mph 1.47 in Snow Heavy Snow
4:55 PM 15.8 °F 2.1 °F - N/A% 29.87 in 0.5 mi NNE 12.7 mph - 3.37 in Snow Heavy Snow
5:15 PM 15.8 °F 3.4 °F - N/A% 29.88 in 1.5 mi NNE 10.4 mph - 0.46 in Snow Heavy Snow
5:35 PM 15.8 °F 2.1 °F - N/A% 29.87 in 0.8 mi NNE 12.7 mph 19.6 mph 2.42 in Snow Heavy Snow
5:55 PM 15.8 °F 3.4 °F - N/A% 29.87 in 1.0 mi NNE 10.4 mph 17.3 mph 4.65 in Snow Heavy Snow
6:15 PM 14.0 °F -0.2 °F - N/A% 29.88 in 1.5 mi NNE 12.7 mph 18.4 mph 0.68 in Snow Snow
6:35 PM 14.0 °F 2.0 °F - N/A% 29.89 in 1.5 mi NNE 9.2 mph 17.3 mph 1.70 in Snow Heavy Snow
6:55 PM 14.0 °F 0.5 °F - N/A% 29.89 in 1.0 mi NNE 11.5 mph - 3.31 in Snow Heavy Snow
7:15 PM 14.0 °F 2.9 °F - N/A% 29.89 in 1.2 mi NNE 8.1 mph - 0.96 in Snow Snow
7:35 PM 14.0 °F 2.9 °F - N/A% 29.88 in 1.5 mi NNE 8.1 mph - 1.99 in Snow Snow
7:55 PM 14.0 °F 2.9 °F - N/A% 29.90 in 0.5 mi NE 8.1 mph - 4.36 in Snow Heavy Snow
8:15 PM 14.0 °F 3.9 °F - N/A% 29.90 in 0.8 mi NNE 6.9 mph - 1.22 in Snow Heavy Snow
8:35 PM 14.0 °F 1.2 °F - N/A% 29.89 in 1.0 mi NNE 10.4 mph 17.3 mph 3.05 in Snow Snow
8:55 PM 14.0 °F 1.2 °F - N/A% 29.87 in 0.8 mi North 10.4 mph 16.1 mph 4.48 in Snow Heavy Snow
9:15 PM 14.0 °F 1.2 °F - N/A% 29.87 in 1.0 mi North 10.4 mph 17.3 mph 0.84 in Snow Snow
9:35 PM 14.0 °F 1.2 °F - N/A% 29.86 in 1.5 mi North 10.4 mph 17.3 mph 1.37 in Snow Snow
9:55 PM 14.0 °F 0.5 °F - N/A% 29.85 in 2.0 mi North 11.5 mph 17.3 mph 1.76 in Snow Light Snow
10:15 PM 12.2 °F -2.5 °F - N/A% 29.85 in 2.0 mi North 12.7 mph 19.6 mph 0.11 in Snow Light Snow
10:35 PM 12.2 °F -2.5 °F - N/A% 29.84 in 2.0 mi North 12.7 mph 17.3 mph 0.36 in Snow Light Snow
10:55 PM 12.2 °F -1.0 °F - N/A% 29.83 in 2.5 mi North 10.4 mph - 0.53 in Snow Light Snow
11:15 PM 12.2 °F -1.8 °F - N/A% 29.81 in 2.0 mi NNE 11.5 mph 18.4 mph 0.09 in Snow Light Snow
11:35 PM 12.2 °F -4.3 °F - N/A% 29.78 in 3.0 mi North 16.1 mph 21.9 mph 0.17 in Snow Light Snow
11:55 PM 12.2 °F -3.1 °F - N/A% 29.78 in 3.0 mi North 13.8 mph 23.0 mph 0.24 in Snow Light Snow